"read_dt","SO2 (ppb)","flags","PMT voltage (V)","lamp voltage (V)","lamp intensity (Hz)","internal temp (C)","react chamber temp (C)","sample flow (l/min)","pres (mmHg)","SO2 bkg (ppb)","SO2 coefficient"
2014-04-15 00:00:00,3150E-2,5C000000,-0724,1024,10264,025.6,045.2,0.603,746.8,01.17,0.508
2014-04-15 00:01:00,3126E-2,5C000000,-0724,1024,10220,025.6,045.3,0.609,746.8,01.17,0.508
2014-04-15 00:02:00,3112E-2,5C000000,-0724,1025,10332,025.6,045.2,0.612,746.9,01.17,0.508
2014-04-15 00:03:00,3173E-2,5C000000,-0724,1024,10338,025.6,045.2,0.611,746.9,01.17,0.508
2014-04-15 00:04:00,3144E-2,5C000000,-0724,1023,10240,025.6,045.2,0.612,746.9,01.17,0.508
2014-04-15 00:05:00,3116E-2,5C000000,-0724,1025,10350,025.6,045.2,0.612,746.9,01.17,0.508
2014-04-15 00:06:00,3137E-2,5C000000,-0724,1025,10239,025.5,045.2,0.627,747.0,01.17,0.508
2014-04-15 00:07:00,3130E-2,5C000000,-0724,1026,10384,025.6,045.2,0.627,747.0,01.17,0.508
2014-04-15 00:08:00,3179E-2,5C000000,-0724,1024,10305,025.6,045.2,0.630,747.0,01.17,0.508
2014-04-15 00:09:00,3139E-2,5C000000,-0724,1025,10295,025.6,045.2,0.645,747.1,01.17,0.508
2014-04-15 00:10:00,3139E-2,5C000000,-0724,1024,10188,025.6,045.2,0.642,747.1,01.17,0.508
2014-04-15 00:11:00,3103E-2,5C000000,-0724,1026,10247,025.6,045.2,0.645,747.1,01.17,0.508
2014-04-15 00:12:00,3118E-2,5C000000,-0724,1024,10066,025.5,045.2,0.648,747.1,01.17,0.508
2014-04-15 00:13:00,3135E-2,5C000000,-0724,1027,10245,025.5,045.2,0.645,747.1,01.17,0.508
2014-04-15 00:14:00,3107E-2,5C000800,-0724,1024,10193,025.6,045.2,0.655,747.1,01.17,0.508
2014-04-15 00:15:00,3104E-2,5C000000,-0724,1025,10336,025.5,045.2,0.649,747.1,01.17,0.508
2014-04-15 00:16:00,3084E-2,5C000000,-0724,1026,10271,025.6,045.2,0.646,747.1,01.17,0.508
2014-04-15 00:17:00,3133E-2,5C000000,-0724,1025,10255,025.6,045.2,0.649,747.1,01.17,0.508
2014-04-15 00:18:00,3100E-2,5C000000,-0724,1029,10239,025.6,045.3,0.642,747.0,01.17,0.508
2014-04-15 00:19:00,3114E-2,5C000000,-0724,1028,10304,025.6,045.3,0.642,747.0,01.17,0.508
2014-04-15 00:20:00,3190E-2,5C000000,-0724,1030,10261,025.6,045.2,0.649,747.1,01.17,0.508
2014-04-15 00:21:00,3141E-2,5C000000,-0724,1031,10204,025.6,045.2,0.646,747.0,01.17,0.508
2014-04-15 00:22:00,3125E-2,5C000000,-0724,1030,10162,025.5,045.2,0.633,747.0,01.17,0.508
2014-04-15 00:23:00,3172E-2,5C000000,-0724,1032,10041,025.5,045.2,0.635,747.0,01.17,0.508
2014-04-15 00:24:00,3170E-2,5C000000,-0724,1032,10348,025.5,045.2,0.635,747.0,01.17,0.508
2014-04-15 00:25:00,3162E-2,5C000000,-0724,1032,10139,025.6,045.2,0.643,747.0,01.17,0.508
2014-04-15 00:26:00,3163E-2,5C000000,-0724,1034,10366,025.5,045.3,0.645,747.0,01.17,0.508
2014-04-15 00:27:00,3161E-2,5C000000,-0724,1034,10159,025.5,045.2,0.647,747.0,01.17,0.508
2014-04-15 00:28:00,3126E-2,5C000800,-0724,1033,10123,025.5,045.2,0.654,747.1,01.17,0.508
2014-04-15 00:29:00,3174E-2,5C000800,-0724,1034,10077,025.5,045.2,0.660,747.1,01.17,0.508
2014-04-15 00:30:00,3174E-2,5C000800,-0724,1036,10225,025.5,045.2,0.663,747.1,01.17,0.508
2014-04-15 00:31:00,3177E-2,5C000800,-0724,1034,9976,025.5,045.3,0.669,747.2,01.17,0.508
2014-04-15 00:32:00,3151E-2,5C000800,-0724,1034,10241,025.5,045.2,0.667,747.1,01.17,0.508
2014-04-15 00:33:00,3178E-2,5C000800,-0724,1035,10288,025.5,045.2,0.665,747.1,01.17,0.508
2014-04-15 00:34:00,3134E-2,5C000800,-0724,1035,10251,025.5,045.2,0.666,747.1,01.17,0.508
2014-04-15 00:35:00,3161E-2,5C000800,-0724,1035,10278,025.5,045.2,0.677,747.2,01.17,0.508
2014-04-15 00:36:00,3185E-2,5C000800,-0724,1036,10311,025.5,045.2,0.685,747.2,01.17,0.508
2014-04-15 00:37:00,3141E-2,5C000800,-0724,1034,10112,025.5,045.2,0.694,747.3,01.17,0.508
2014-04-15 00:38:00,3130E-2,5C000810,-0724,1035,9951,025.5,045.2,0.697,747.3,01.17,0.508
2014-04-15 00:39:00,3163E-2,5C000800,-0724,1034,10021,025.4,045.3,0.701,747.3,01.17,0.508
2014-04-15 00:40:00,3102E-2,5C000800,-0724,1034,10226,025.4,045.2,0.700,747.3,01.17,0.508
2014-04-15 00:41:00,3149E-2,5C000800,-0724,1033,10207,025.4,045.2,0.707,747.3,01.17,0.508
2014-04-15 00:42:00,3152E-2,5C000800,-0724,1035,10269,025.4,045.2,0.706,747.3,01.17,0.508
2014-04-15 00:43:00,3125E-2,5C000800,-0724,1036,10258,025.5,045.3,0.713,747.4,01.17,0.508
2014-04-15 00:44:00,3116E-2,5C000800,-0724,1035,10241,025.5,045.2,0.717,747.4,01.17,0.508
2014-04-15 00:45:00,3177E-2,5C000800,-0724,1035,10159,025.4,045.2,0.716,747.3,01.17,0.508
2014-04-15 00:46:00,3126E-2,5C000800,-0724,1035,10287,025.4,045.2,0.712,747.3,01.17,0.508
2014-04-15 00:47:00,3114E-2,5C000800,-0724,1035,9911,025.4,045.2,0.717,747.3,01.17,0.508
2014-04-15 00:48:00,3194E-2,5C000800,-0724,1035,10243,025.5,045.2,0.725,747.4,01.17,0.508
2014-04-15 00:49:00,3163E-2,5C000800,-0724,1035,10133,025.4,045.2,0.722,747.4,01.17,0.508
2014-04-15 00:50:00,3128E-2,5C000800,-0724,1036,10101,025.4,045.2,0.718,747.4,01.17,0.508
2014-04-15 00:51:00,3168E-2,5C000800,-0724,1037,10188,025.4,045.2,0.720,747.4,01.17,0.508
2014-04-15 00:52:00,3139E-2,5C000800,-0724,1035,10198,025.4,045.2,0.728,747.4,01.17,0.508
2014-04-15 00:53:00,3137E-2,5C000800,-0724,1037,10226,025.4,045.2,0.736,747.5,01.17,0.508
2014-04-15 00:54:00,3120E-2,5C000800,-0724,1035,10282,025.4,045.2,0.729,747.5,01.17,0.508
2014-04-15 00:55:00,3144E-2,5C000800,-0724,1035,10144,025.4,045.2,0.725,747.4,01.17,0.508
2014-04-15 00:56:00,3139E-2,5C000800,-0724,1037,10175,025.4,045.2,0.726,747.4,01.17,0.508
2014-04-15 00:57:00,3212E-2,5C000800,-0724,1035,10207,025.4,045.2,0.725,747.4,01.17,0.508
2014-04-15 00:58:00,3203E-2,5C000800,-0724,1037,10078,025.4,045.2,0.730,747.4,01.17,0.508
2014-04-15 00:59:00,3153E-2,5C000800,-0724,1036,10122,025.4,045.2,0.734,747.4,01.17,0.508
2014-04-15 01:00:00,3166E-2,5C000800,-0724,1036,10242,025.4,045.2,0.729,747.4,01.17,0.508
2014-04-15 01:01:00,3220E-2,5C000800,-0724,1036,10066,025.4,045.2,0.726,747.3,01.17,0.508
2014-04-15 01:02:00,3182E-2,5C000800,-0724,1036,10242,025.4,045.2,0.725,747.3,01.17,0.508
2014-04-15 01:03:00,3167E-2,5C000800,-0724,1036,10072,025.4,045.2,0.732,747.4,01.17,0.508
2014-04-15 01:04:00,3171E-2,5C000800,-0724,1035,10261,025.4,045.2,0.731,747.4,01.17,0.508
2014-04-15 01:05:00,3138E-2,5C000800,-0724,1037,10254,025.4,045.2,0.729,747.4,01.17,0.508
2014-04-15 01:06:00,3193E-2,5C000800,-0724,1037,10214,025.4,045.2,0.730,747.4,01.17,0.508
2014-04-15 01:07:00,3116E-2,5C000800,-0724,1036,10318,025.4,045.2,0.720,747.3,01.17,0.508
2014-04-15 01:08:00,3201E-2,5C000800,-0724,1037,10296,025.4,045.2,0.725,747.3,01.17,0.508
2014-04-15 01:09:00,3182E-2,5C000800,-0724,1035,10158,025.4,045.2,0.732,747.4,01.17,0.508
2014-04-15 01:10:00,3173E-2,5C000800,-0724,1037,10138,025.4,045.2,0.733,747.4,01.17,0.508
2014-04-15 01:11:00,3181E-2,5C000800,-0724,1036,9992,025.3,045.2,0.738,747.4,01.17,0.508
2014-04-15 01:12:00,3214E-2,5C000800,-0724,1037,10159,025.4,045.2,0.730,747.3,01.17,0.508
2014-04-15 01:13:00,3182E-2,5C000800,-0724,1037,10223,025.4,045.2,0.734,747.3,01.17,0.508
2014-04-15 01:14:00,3159E-2,5C000800,-0724,1037,10157,025.4,045.2,0.741,747.4,01.17,0.508
2014-04-15 01:15:00,3135E-2,5C000800,-0724,1037,10172,025.4,045.2,0.742,747.4,01.17,0.508
2014-04-15 01:16:00,3139E-2,5C000800,-0724,1037,10177,025.4,045.2,0.748,747.5,01.17,0.508
2014-04-15 01:17:00,3155E-2,5C000800,-0724,1036,10132,025.4,045.2,0.746,747.5,01.17,0.508
2014-04-15 01:18:00,3162E-2,5C000800,-0724,1036,10098,025.4,045.2,0.740,747.4,01.17,0.508
2014-04-15 01:19:00,3157E-2,5C000800,-0724,1037,10178,025.4,045.2,0.745,747.4,01.17,0.508
2014-04-15 01:20:00,3147E-2,5C000800,-0724,1037,10050,025.4,045.2,0.759,747.5,01.17,0.508
2014-04-15 01:21:00,3153E-2,5C000800,-0724,1037,10052,025.3,045.2,0.759,747.6,01.17,0.508
2014-04-15 01:22:00,3117E-2,5C000800,-0724,1037,10234,025.3,045.2,0.752,747.5,01.17,0.508
2014-04-15 01:23:00,3150E-2,5C000800,-0724,1037,10139,025.3,045.2,0.755,747.5,01.17,0.508
2014-04-15 01:24:00,3138E-2,5C000800,-0724,1037,10257,025.3,045.2,0.758,747.6,01.17,0.508
2014-04-15 01:25:00,3155E-2,5C000800,-0724,1036,10103,025.3,045.2,0.755,747.5,01.17,0.508
2014-04-15 01:26:00,3170E-2,5C000800,-0724,1036,10049,025.3,045.2,0.757,747.6,01.17,0.508
2014-04-15 01:27:00,3130E-2,5C000800,-0724,1035,10174,025.3,045.2,0.759,747.6,01.17,0.508
2014-04-15 01:28:00,3141E-2,5C000800,-0724,1036,10107,025.3,045.2,0.766,747.6,01.17,0.508
2014-04-15 01:29:00,3113E-2,5C000800,-0724,1035,10121,025.3,045.2,0.767,747.6,01.17,0.508
2014-04-15 01:30:00,3162E-2,5C000800,-0724,1036,10207,025.3,045.2,0.765,747.6,01.17,0.508
2014-04-15 01:31:00,3108E-2,5C000800,-0724,1035,10186,025.4,045.2,0.771,747.7,01.17,0.508
2014-04-15 01:32:00,3125E-2,5C000800,-0724,1036,10245,025.3,045.2,0.776,747.8,01.17,0.508
2014-04-15 01:33:00,3140E-2,5C000800,-0724,1036,10154,025.3,045.2,0.777,747.7,01.17,0.508
2014-04-15 01:34:00,3122E-2,5C000800,-0724,1037,10266,025.3,045.2,0.789,747.8,01.17,0.508
2014-04-15 01:35:00,3126E-2,5C000800,-0724,1036,10120,025.3,045.2,0.790,747.8,01.17,0.508
2014-04-15 01:36:00,3163E-2,5C000800,-0724,1035,10179,025.3,045.2,0.796,747.9,01.17,0.508
2014-04-15 01:37:00,3112E-2,5C000800,-0724,1036,10117,025.3,045.2,0.800,747.9,01.17,0.508
2014-04-15 01:38:00,3116E-2,5C000800,-0724,1035,10098,025.3,045.2,0.797,747.9,01.17,0.508
2014-04-15 01:39:00,3122E-2,5C000800,-0724,1036,10041,025.3,045.2,0.811,748.0,01.17,0.508
2014-04-15 01:40:00,3153E-2,5C000800,-0724,1036,10092,025.3,045.2,0.814,748.1,01.17,0.508
2014-04-15 01:41:00,3162E-2,5C000800,-0724,1037,10133,025.3,045.2,0.812,748.0,01.17,0.508
2014-04-15 01:42:00,3146E-2,5C000800,-0724,1038,10163,025.3,045.2,0.812,748.1,01.17,0.508
2014-04-15 01:43:00,3142E-2,5C000800,-0724,1035,10185,025.3,045.2,0.817,748.1,01.17,0.508
2014-04-15 01:44:00,3145E-2,5C000800,-0724,1036,10130,025.3,045.2,0.820,748.2,01.17,0.508
2014-04-15 01:45:00,3171E-2,5C000800,-0724,1036,10166,025.3,045.2,0.813,748.2,01.17,0.508
2014-04-15 01:46:00,3152E-2,5C000800,-0724,1037,10226,025.3,045.2,0.805,748.1,01.17,0.508
2014-04-15 01:47:00,3133E-2,5C000800,-0724,1036,10143,025.3,045.2,0.808,748.2,01.17,0.508
2014-04-15 01:48:00,3148E-2,5C000800,-0724,1035,9930,025.3,045.2,0.810,748.2,01.17,0.508
2014-04-15 01:49:00,3125E-2,5C000800,-0724,1036,10100,025.3,045.2,0.814,748.3,01.17,0.508
2014-04-15 01:50:00,3123E-2,5C000800,-0724,1036,10018,025.3,045.2,0.810,748.3,01.17,0.508
2014-04-15 01:51:00,3172E-2,5C000800,-0724,1038,10213,025.3,045.2,0.805,748.2,01.17,0.508
2014-04-15 01:52:00,3181E-2,5C000800,-0724,1037,10220,025.3,045.2,0.806,748.2,01.17,0.508
2014-04-15 01:53:00,3205E-2,5C000800,-0724,1037,10330,025.3,045.2,0.815,748.3,01.17,0.508
2014-04-15 01:54:00,3234E-2,5C000800,-0724,1038,10155,025.3,045.2,0.803,748.3,01.17,0.508
2014-04-15 01:55:00,3193E-2,5C000810,-0724,1038,10001,025.3,045.2,0.801,748.2,01.17,0.508
2014-04-15 01:56:00,3171E-2,5C000800,-0724,1038,10196,025.3,045.2,0.806,748.3,01.17,0.508
2014-04-15 01:57:00,3229E-2,5C000800,-0724,1038,10154,025.3,045.2,0.803,748.3,01.17,0.508
2014-04-15 01:58:00,3262E-2,5C000800,-0724,1038,10111,025.3,045.2,0.802,748.3,01.17,0.508
2014-04-15 01:59:00,3273E-2,5C000800,-0724,1036,10138,025.3,045.2,0.799,748.3,01.17,0.508
2014-04-15 02:00:00,3211E-2,5C000800,-0724,1037,10084,025.3,045.2,0.796,748.2,01.17,0.508
2014-04-15 02:01:00,3239E-2,5C000800,-0724,1038,10119,025.3,045.2,0.797,748.3,01.17,0.508
2014-04-15 02:02:00,3239E-2,5C000800,-0724,1038,10206,025.3,045.2,0.794,748.2,01.17,0.508
2014-04-15 02:03:00,3239E-2,5C000800,-0724,1038,10059,025.3,045.2,0.796,748.3,01.17,0.508
2014-04-15 02:04:00,3294E-2,5C000800,-0724,1038,10022,025.3,045.2,0.791,748.3,01.17,0.508
2014-04-15 02:05:00,3311E-2,5C000800,-0724,1037,10146,025.3,045.2,0.795,748.3,01.17,0.508
2014-04-15 02:06:00,3296E-2,5C000800,-0724,1036,10104,025.3,045.2,0.788,748.3,01.17,0.508
2014-04-15 02:07:00,3270E-2,5C000800,-0724,1037,10212,025.3,045.2,0.784,748.2,01.17,0.508
2014-04-15 02:08:00,3224E-2,5C000800,-0724,1037,10276,025.3,045.2,0.792,748.3,01.17,0.508
2014-04-15 02:09:00,3240E-2,5C000800,-0724,1036,10209,025.3,045.2,0.794,748.3,01.17,0.508
2014-04-15 02:10:00,3293E-2,5C000800,-0724,1037,9949,025.3,045.2,0.762,748.3,01.17,0.508
2014-04-15 02:11:00,3298E-2,5C000800,-0724,1037,10209,025.3,045.2,0.762,748.2,01.17,0.508
2014-04-15 02:12:00,3303E-2,5C000810,-0724,1036,10235,025.3,045.2,0.763,748.3,01.17,0.508
2014-04-15 02:13:00,3225E-2,5C000800,-0724,1037,10241,025.3,045.2,0.762,748.3,01.17,0.508
2014-04-15 02:14:00,3261E-2,5C000800,-0724,1037,10162,025.3,045.2,0.760,748.3,01.17,0.508
2014-04-15 02:15:00,3276E-2,5C000800,-0724,1038,10242,025.3,045.2,0.762,748.3,01.17,0.508
2014-04-15 02:16:00,3266E-2,5C000800,-0724,1038,10246,025.3,045.2,0.763,748.3,01.17,0.508
2014-04-15 02:17:00,3299E-2,5C000800,-0724,1037,10183,025.4,045.2,0.762,748.3,01.17,0.508
2014-04-15 02:18:00,3221E-2,5C000800,-0724,1038,10151,025.4,045.2,0.754,748.2,01.17,0.508
2014-04-15 02:19:00,3256E-2,5C000810,-0724,1038,9998,025.4,045.2,0.752,748.2,01.17,0.508
2014-04-15 02:20:00,3255E-2,5C000800,-0724,1037,10034,025.4,045.2,0.758,748.3,01.17,0.508
2014-04-15 02:21:00,3254E-2,5C000800,-0724,1037,10105,025.4,045.2,0.753,748.3,01.17,0.508
2014-04-15 02:22:00,3204E-2,5C000800,-0724,1038,9920,025.4,045.2,0.743,748.2,01.17,0.508
2014-04-15 02:23:00,3239E-2,5C000800,-0724,1038,10247,025.4,045.2,0.736,748.1,01.17,0.508
2014-04-15 02:24:00,3230E-2,5C000800,-0724,1038,10239,025.3,045.2,0.737,748.2,01.17,0.508
2014-04-15 02:25:00,3202E-2,5C000800,-0724,1039,10033,025.3,045.2,0.735,748.1,01.17,0.508
2014-04-15 02:26:00,3239E-2,5C000800,-0724,1037,10049,025.4,045.2,0.744,748.3,01.17,0.508
2014-04-15 02:27:00,3226E-2,5C000800,-0724,1039,10226,025.4,045.2,0.741,748.2,01.17,0.508
2014-04-15 02:28:00,3225E-2,5C000800,-0724,1040,9999,025.4,045.2,0.738,748.2,01.17,0.508
2014-04-15 02:29:00,3225E-2,5C000800,-0724,1037,9984,025.3,045.2,0.738,748.2,01.17,0.508
2014-04-15 02:30:00,3215E-2,5C000800,-0724,1038,10123,025.4,045.2,0.743,748.3,01.17,0.508
2014-04-15 02:31:00,3237E-2,5C000810,-0724,1040,10013,025.4,045.2,0.746,748.3,01.17,0.508
2014-04-15 02:32:00,3242E-2,5C000800,-0724,1038,10196,025.4,045.2,0.747,748.3,01.17,0.508
2014-04-15 02:33:00,3250E-2,5C000800,-0724,1039,10020,025.4,045.2,0.749,748.3,01.17,0.508
2014-04-15 02:34:00,3210E-2,5C000810,-0724,1039,9993,025.4,045.2,0.752,748.4,01.17,0.508
2014-04-15 02:35:00,3197E-2,5C000810,-0724,1039,10181,025.4,045.2,0.747,748.4,01.17,0.508
2014-04-15 02:36:00,3214E-2,5C000800,-0724,1039,10173,025.4,045.2,0.754,748.4,01.17,0.508
2014-04-15 02:37:00,3240E-2,5C000800,-0724,1039,10158,025.4,045.2,0.756,748.5,01.17,0.508
2014-04-15 02:38:00,3209E-2,5C000800,-0724,1040,10224,025.4,045.2,0.753,748.4,01.17,0.508
2014-04-15 02:39:00,3204E-2,5C000800,-0724,1041,10264,025.4,045.2,0.761,748.5,01.17,0.508
2014-04-15 02:40:00,3225E-2,5C000800,-0724,1040,9956,025.4,045.2,0.760,748.5,01.17,0.508
2014-04-15 02:41:00,3170E-2,5C000800,-0724,1039,10075,025.4,045.2,0.760,748.5,01.17,0.508
2014-04-15 02:42:00,3222E-2,5C000800,-0724,1040,10036,025.4,045.2,0.763,748.6,01.17,0.508
2014-04-15 02:43:00,3229E-2,5C000810,-0724,1038,9878,025.4,045.2,0.760,748.6,01.17,0.508
2014-04-15 02:44:00,3184E-2,5C000800,-0724,1039,10180,025.4,045.2,0.757,748.5,01.17,0.508
2014-04-15 02:45:00,3075E-2,5C000800,-0724,1035,10097,025.4,045.2,0.758,748.6,01.17,0.508
2014-04-15 02:46:00,2906E-2,5C000800,-0724,1039,10155,025.4,045.2,0.759,748.6,01.17,0.508
2014-04-15 02:47:00,2912E-2,5C000800,-0724,1040,10091,025.4,045.2,0.768,748.7,01.17,0.508
2014-04-15 02:48:00,2916E-2,5C000800,-0724,1040,9997,025.4,045.2,0.762,748.6,01.17,0.508
2014-04-15 02:49:00,2929E-2,5C000800,-0724,1042,10151,025.4,045.2,0.762,748.6,01.17,0.508
2014-04-15 02:50:00,2913E-2,5C000800,-0724,1041,10022,025.4,045.2,0.764,748.7,01.17,0.508
2014-04-15 02:51:00,2892E-2,5C000800,-0724,1041,10224,025.4,045.2,0.764,748.7,01.17,0.508
2014-04-15 02:52:00,2913E-2,5C000800,-0724,1042,9985,025.4,045.2,0.765,748.7,01.17,0.508
2014-04-15 02:53:00,2887E-2,5C000800,-0724,1041,10072,025.4,045.2,0.765,748.7,01.17,0.508
2014-04-15 02:54:00,2905E-2,5C000800,-0724,1041,10051,025.4,045.2,0.771,748.8,01.17,0.508
2014-04-15 02:55:00,2879E-2,5C000800,-0724,1042,10128,025.4,045.2,0.765,748.8,01.17,0.508
2014-04-15 02:56:00,2947E-2,5C000800,-0724,1042,10224,025.4,045.2,0.763,748.7,01.17,0.508
2014-04-15 02:57:00,2906E-2,5C000800,-0724,1040,10257,025.4,045.2,0.768,748.8,01.17,0.508
2014-04-15 02:58:00,2868E-2,5C000800,-0724,1041,10205,025.5,045.2,0.767,748.8,01.17,0.508
2014-04-15 02:59:00,2873E-2,5C000800,-0724,1041,10164,025.4,045.2,0.771,748.9,01.17,0.508
2014-04-15 03:00:00,2859E-2,5C000810,-0724,1041,10173,025.4,045.2,0.765,748.9,01.17,0.508
2014-04-15 03:01:00,2933E-2,5C000800,-0724,1040,10148,025.4,045.2,0.763,748.9,01.17,0.508
2014-04-15 03:02:00,2879E-2,5C000800,-0724,1041,10133,025.5,045.2,0.762,748.9,01.17,0.508
2014-04-15 03:03:00,2878E-2,5C000800,-0724,1039,9817,025.5,045.2,0.763,748.9,01.17,0.508
2014-04-15 03:04:00,2869E-2,5C000810,-0724,1040,9944,025.5,045.2,0.772,749.0,01.17,0.508
2014-04-15 03:05:00,2907E-2,5C000800,-0724,1040,10040,025.5,045.2,0.771,749.0,01.17,0.508
2014-04-15 03:06:00,2883E-2,5C000800,-0724,1039,10087,025.5,045.2,0.767,749.0,01.17,0.508
2014-04-15 03:07:00,2905E-2,5C000800,-0724,1040,10159,025.5,045.2,0.767,749.0,01.17,0.508
2014-04-15 03:08:00,2911E-2,5C000800,-0724,1038,10138,025.5,045.2,0.770,749.0,01.17,0.508
2014-04-15 03:09:00,2854E-2,5C000800,-0724,1038,10051,025.5,045.2,0.770,749.1,01.17,0.508
2014-04-15 03:10:00,2875E-2,5C000800,-0724,1039,10080,025.5,045.2,0.770,749.1,01.17,0.508
2014-04-15 03:11:00,2883E-2,5C000810,-0724,1038,10032,025.5,045.2,0.768,749.1,01.17,0.508
2014-04-15 03:12:00,2831E-2,5C000800,-0724,1039,10036,025.5,045.2,0.768,749.2,01.17,0.508
2014-04-15 03:13:00,2885E-2,5C000800,-0724,1038,10103,025.5,045.2,0.774,749.3,01.17,0.508
2014-04-15 03:14:00,2885E-2,5C000800,-0724,1039,10143,025.5,045.2,0.771,749.3,01.17,0.508
2014-04-15 03:15:00,2875E-2,5C000800,-0724,1038,10107,025.5,045.2,0.762,749.3,01.17,0.508
2014-04-15 03:16:00,2837E-2,5C000800,-0724,1039,10209,025.5,045.2,0.766,749.3,01.17,0.508
2014-04-15 03:17:00,2834E-2,5C000800,-0724,1038,10287,025.5,045.2,0.772,749.4,01.17,0.508
2014-04-15 03:18:00,2866E-2,5C000800,-0724,1039,10186,025.5,045.2,0.763,749.4,01.17,0.508
2014-04-15 03:19:00,2877E-2,5C000800,-0724,1038,10222,025.5,045.2,0.762,749.3,01.17,0.508
2014-04-15 03:20:00,2870E-2,5C000800,-0724,1037,10164,025.5,045.2,0.769,749.4,01.17,0.508
2014-04-15 03:21:00,2929E-2,5C000800,-0724,1037,10192,025.5,045.2,0.727,749.5,01.17,0.508
2014-04-15 03:22:00,2891E-2,5C000800,-0724,1037,10050,025.5,045.2,0.697,749.4,01.17,0.508
2014-04-15 03:23:00,2844E-2,5C000800,-0724,1037,9946,025.5,045.2,0.690,749.4,01.17,0.508
2014-04-15 03:24:00,2837E-2,5C000800,-0724,1037,10093,025.5,045.2,0.673,749.5,01.17,0.508
2014-04-15 03:25:00,2817E-2,5C000810,-0724,1037,10088,025.5,045.2,0.659,749.5,01.17,0.508
2014-04-15 03:26:00,2859E-2,5C000000,-0724,1037,10326,025.6,045.2,0.649,749.5,01.17,0.508
2014-04-15 03:27:00,2866E-2,5C000800,-0724,1036,10030,025.5,045.2,0.655,749.5,01.17,0.508
2014-04-15 03:28:00,2851E-2,5C000800,-0724,1036,10121,025.5,045.2,0.653,749.5,01.17,0.508
2014-04-15 03:29:00,2848E-2,5C000000,-0724,1036,10212,025.5,045.2,0.649,749.5,01.17,0.508
2014-04-15 03:30:00,2906E-2,5C000000,-0724,1036,10117,025.6,045.2,0.650,749.5,01.17,0.508
2014-04-15 03:31:00,2882E-2,5C000800,-0724,1036,10200,025.5,045.2,0.658,749.6,01.17,0.508
2014-04-15 03:32:00,2890E-2,5C000800,-0724,1036,10210,025.5,045.2,0.662,749.7,01.17,0.508
2014-04-15 03:33:00,2858E-2,5C000800,-0724,1037,10199,025.5,045.2,0.666,749.7,01.17,0.508
2014-04-15 03:34:00,2838E-2,5C000800,-0724,1036,10353,025.5,045.2,0.664,749.7,01.17,0.508
2014-04-15 03:35:00,2850E-2,5C000800,-0724,1035,10159,025.5,045.2,0.667,749.8,01.17,0.508
2014-04-15 03:36:00,2850E-2,5C000800,-0724,1036,10364,025.5,045.2,0.673,749.8,01.17,0.508
2014-04-15 03:37:00,2813E-2,5C000800,-0724,1035,10173,025.6,045.2,0.670,749.8,01.17,0.508
2014-04-15 03:38:00,2819E-2,5C000810,-0724,1036,9944,025.6,045.2,0.681,749.9,01.17,0.508
2014-04-15 03:39:00,2887E-2,5C000800,-0724,1035,10215,025.6,045.2,0.676,749.9,01.17,0.508
2014-04-15 03:40:00,2769E-2,5C000800,-0724,1026,10095,025.6,045.2,0.680,749.9,01.17,0.508
2014-04-15 03:41:00,2802E-2,5C000800,-0724,1029,10236,025.6,045.2,0.684,749.9,01.17,0.508
2014-04-15 03:42:00,2807E-2,5C000800,-0724,1032,10213,025.6,045.2,0.688,750.0,01.17,0.508
2014-04-15 03:43:00,2818E-2,5C000800,-0724,1034,9989,025.6,045.2,0.690,750.0,01.17,0.508
2014-04-15 03:44:00,2788E-2,5C000800,-0724,1035,10141,025.6,045.2,0.688,750.0,01.17,0.508
2014-04-15 03:45:00,2868E-2,5C000800,-0724,1035,10144,025.6,045.2,0.687,750.0,01.17,0.508
2014-04-15 03:46:00,2797E-2,5C000800,-0724,1036,10193,025.6,045.2,0.691,750.1,01.17,0.508
2014-04-15 03:47:00,2777E-2,5C000800,-0724,1036,10081,025.6,045.2,0.694,750.1,01.17,0.508
2014-04-15 03:48:00,2838E-2,5C000800,-0724,1037,10352,025.6,045.2,0.700,750.2,01.17,0.508
2014-04-15 03:49:00,2807E-2,5C000800,-0724,1034,10151,025.6,045.2,0.696,750.2,01.17,0.508
2014-04-15 03:50:00,2840E-2,5C000800,-0724,1036,10122,025.6,045.2,0.689,750.2,01.17,0.508
2014-04-15 03:51:00,2765E-2,5C000800,-0724,1036,10173,025.6,045.2,0.697,750.2,01.17,0.508
2014-04-15 03:52:00,2808E-2,5C000800,-0724,1034,10254,025.6,045.2,0.707,750.4,01.17,0.508
2014-04-15 03:53:00,2812E-2,5C000800,-0724,1035,10096,025.6,045.3,0.699,750.3,01.17,0.508
2014-04-15 03:54:00,2799E-2,5C000800,-0724,1035,10308,025.6,045.2,0.693,750.2,01.17,0.508
2014-04-15 03:55:00,2767E-2,5C000800,-0724,1034,10185,025.6,045.2,0.693,750.3,01.17,0.508
2014-04-15 03:56:00,2784E-2,5C000800,-0724,1034,10249,025.6,045.3,0.709,750.4,01.17,0.508
2014-04-15 03:57:00,2795E-2,5C000800,-0724,1035,10137,025.6,045.3,0.699,750.4,01.17,0.508
2014-04-15 03:58:00,2826E-2,5C000800,-0724,1035,10161,025.7,045.2,0.690,750.3,01.17,0.508
2014-04-15 03:59:00,2763E-2,5C000800,-0724,1034,10227,025.6,045.2,0.693,750.4,01.17,0.508
2014-04-15 04:00:00,2833E-2,5C000800,-0724,1035,10261,025.7,045.2,0.698,750.4,01.17,0.508
2014-04-15 04:01:00,2786E-2,5C000800,-0724,1034,10074,025.7,045.2,0.688,750.4,01.17,0.508
2014-04-15 04:02:00,2795E-2,5C000800,-0724,1035,10167,025.7,045.2,0.684,750.4,01.17,0.508
2014-04-15 04:03:00,2816E-2,5C000800,-0724,1036,10254,025.7,045.2,0.687,750.4,01.17,0.508
2014-04-15 04:04:00,2834E-2,5C000800,-0724,1034,10084,025.7,045.2,0.679,750.4,01.17,0.508
2014-04-15 04:05:00,2809E-2,5C000800,-0724,1035,10171,025.7,045.2,0.678,750.4,01.17,0.508
2014-04-15 04:06:00,2859E-2,5C000800,-0724,1034,10293,025.7,045.2,0.681,750.4,01.17,0.508
2014-04-15 04:07:00,2826E-2,5C000800,-0724,1035,10284,025.7,045.2,0.684,750.5,01.17,0.508
2014-04-15 04:08:00,2804E-2,5C000800,-0724,1035,10214,025.7,045.2,0.676,750.4,01.17,0.508
2014-04-15 04:09:00,2768E-2,5C000800,-0724,1034,10045,025.7,045.2,0.678,750.4,01.17,0.508
2014-04-15 04:10:00,2801E-2,5C000800,-0724,1034,10134,025.7,045.2,0.680,750.5,01.17,0.508
2014-04-15 04:11:00,2805E-2,5C000800,-0724,1035,10229,025.7,045.2,0.684,750.5,01.17,0.508
2014-04-15 04:12:00,2815E-2,5C000800,-0724,1034,10223,025.7,045.2,0.678,750.5,01.17,0.508
2014-04-15 04:13:00,2809E-2,5C000800,-0724,1034,10155,025.7,045.2,0.679,750.5,01.17,0.508
2014-04-15 04:14:00,2819E-2,5C000800,-0724,1033,10283,025.7,045.2,0.671,750.5,01.17,0.508
2014-04-15 04:15:00,2793E-2,5C000800,-0724,1035,10166,025.7,045.2,0.674,750.5,01.17,0.508
2014-04-15 04:16:00,2828E-2,5C000800,-0724,1034,10183,025.7,045.3,0.676,750.5,01.17,0.508
2014-04-15 04:17:00,2819E-2,5C000800,-0724,1033,10177,025.7,045.2,0.672,750.5,01.17,0.508
2014-04-15 04:18:00,2856E-2,5C000800,-0724,1034,10004,025.7,045.2,0.659,750.4,01.17,0.508
2014-04-15 04:19:00,2838E-2,5C000800,-0724,1033,10202,025.7,045.2,0.654,750.4,01.17,0.508
2014-04-15 04:20:00,2825E-2,5C000800,-0724,1034,10153,025.7,045.3,0.653,750.4,01.17,0.508